FW7163 Weather Reports


time (UTC)temp
F
wind
direction
speed
knots
gust
knots
rain 1hr
in
rain 24hr
in
rain mn
in
humidity
%
barometer
mb
20260504050140 50 14 2.6 4.3 0.00 0.00 0.00 62 999.2
20260504044540 51 16 3.5 6.1 0.00 0.00 0.00 61 999.1
20260504043044 51 22 3.5 8.7 0.00 0.00 0.00 61 999.1
20260504041538 52 30 7.8 16.5 0.00 0.00 0.00 60 999.0
20260504040037 52 30 13.0 22.6 0.00 0.00 0.00 59 998.4
20260504034542 54 30 20.9 28.7 0.00 0.00 0.00 57 997.7
20260504033040 59 28 25.2 32.2 0.00 0.00 0.00 46 997.2
20260504031536 64 319 9.6 13.9 0.00 0.00 0.00 34 995.8
20260504030039 65 319 7.8 11.3 0.00 0.00 0.00 32 995.7
20260504024535 66 302 8.7 12.2 0.00 0.00 0.00 31 995.4
20260504023034 66 290 12.2 16.5 0.00 0.00 0.00 30 995.3
20260504021536 67 302 9.6 14.8 0.00 0.00 0.00 29 995.3
20260504020040 67 273 9.6 16.5 0.00 0.00 0.00 28 995.0
20260504014537 67 250 10.4 15.6 0.00 0.00 0.00 27 995.0
20260504013030 68 265 12.2 19.1 0.00 0.00 0.00 25 995.2
20260504011526 69 252 11.3 16.5 0.00 0.00 0.00 25 995.6
20260504010023 70 273 13.0 20.9 0.00 0.00 0.00 25 996.0
20260504004521 71 271 13.0 24.3 0.00 0.00 0.00 24 996.3
20260504003017 72 261 12.2 21.7 0.00 0.00 0.00 24 996.5
20260504001515 72 277 13.0 22.6 0.00 0.00 0.00 24 996.9
20260504000013 73 290 13.0 19.1 0.00 0.00 0.00 22 997.2
20260503234517 74 310 13.0 22.6 0.00 0.00 0.00 21 997.4
20260503233009 74 291 16.5 25.2 0.00 0.00 0.00 21 997.6
20260503231507 75 281 18.2 25.2 0.00 0.00 0.00 22 997.8
20260503230008 75 283 16.5 21.7 0.00 0.00 0.00 23 998.1
20260503224504 75 284 15.6 26.9 0.00 0.00 0.00 23 998.5
20260503223001 75 288 16.5 25.2 0.00 0.00 0.00 23 998.7
20260503221602 75 277 18.2 26.9 0.00 0.00 0.00 22 999.1
20260503220058 75 277 15.6 27.8 0.00 0.00 0.00 23 999.3
20260503214555 73 288 15.6 25.2 0.00 0.00 0.00 26 999.7
20260503213100 73 290 14.8 20.0 0.00 0.00 0.00 25 1000.1
20260503211609 72 292 18.2 25.2 0.00 0.00 0.00 26 1000.5
20260503210049 73 287 17.4 29.5 0.00 0.00 0.00 24 1000.9
20260503204544 74 279 19.1 29.5 0.00 0.00 0.00 24 1001.2
20260503203048 74 289 20.0 26.1 0.00 0.00 0.00 25 1001.5
20260503201540 74 283 17.4 25.2 0.00 0.00 0.00 25 1001.9
20260503200052 74 288 17.4 29.5 0.00 0.00 0.00 24 1002.3
20260503194534 73 296 20.9 26.9 0.00 0.00 0.00 25 1002.6
20260503193035 73 303 17.4 25.2 0.00 0.00 0.00 26 1003.1
20260503191528 72 286 16.5 24.3 0.00 0.00 0.00 26 1003.4
20260503190025 72 272 14.8 21.7 0.00 0.00 0.00 26 1003.8
20260503184526 71 287 15.6 23.5 0.00 0.00 0.00 26 1004.2
20260503183019 71 282 13.9 25.2 0.00 0.00 0.00 27 1004.6
20260503181517 70 286 12.2 26.9 0.00 0.00 0.00 27 1005.0
20260503180020 70 273 16.5 24.3 0.00 0.00 0.00 28 1005.3
20260503174516 69 275 13.0 22.6 0.00 0.00 0.00 27 1005.8
20260503173008 69 277 13.0 21.7 0.00 0.00 0.00 28 1006.2
20260503171505 68 282 13.0 22.6 0.00 0.00 0.00 28 1006.6
20260503130104 47 247 4.3 7.8 0.00 0.00 0.00 55 1010.0
20260503081536 38 37 0.0 0.0 0.00 0.00 0.00 62 1011.1
20260503071518 39 38 0.9 1.7 0.00 0.00 0.00 64 1011.2
20260503054509 43 26 4.3 7.0 0.00 0.00 0.00 56 1011.3
20260503053003 42 24 5.2 8.7 0.00 0.00 0.00 57 1011.3